Regional Weather Roundup
Issued by NWS

Home | Current Version | Previous Version | Text Only | Print | Product List | Glossary Off
Versions: 1 2 3 4 5 6 7 8 9 10 11 12 13 14 15 16 17 18 19 20 21 22 23 24 25 26 27 28 29 30 31 32 33 34 35 36 37 38 39 40 41 42 43 44 45 46 47 48 49 50

000
ASUS45 KCYS 281410
RWRWY

WYOMING REGIONAL WEATHER ROUNDUP
NATIONAL WEATHER SERVICE CHEYENNE WY
800 AM MDT THU APR 28 2016

NOTE:  "FAIR" INDICATES FEW OR NO CLOUDS BELOW 12,000 FEET
WITH NO SIGNIFICANT WEATHER AND/OR OBSTRUCTIONS TO VISIBILITY.

WYZ001-281500-
YELLOWSTONE NATIONAL PARK

CITY           SKY/WX    TMP DP  RH WIND       PRES   REMARKS
LK YELLOWSTONE   N/A     28  21  75 VRB5      29.90R WCI  23
W YELLOWSTONE  NOT AVBL

$$
WYZ002>013-054>058-071-098>099-281500-
NORTHERN WYOMING

CITY           SKY/WX    TMP DP  RH WIND       PRES   REMARKS
JACKSON        MOSUNNY   37  28  70 N12       29.84S WCI  30
CODY           CLOUDY    30  27  86 N8        29.99R WCI  23
GREYBULL       CLOUDY    35  30  82 NW8       29.98S WCI  29
WORLAND        CLOUDY    35  31  85 N8        29.99R WCI  29
SHERIDAN       CLOUDY    33  31  92 N3        30.05R
BUFFALO        CLOUDY    30  28  92 N7        30.01R WCI  23
GILLETTE       CLOUDY    31  30  96 N9        30.01R FOG     WCI  23
HULETT         LGT SNOW  32  32 100 N7        30.01S WCI  26
NEWCASTLE      CLOUDY    32  28  86 N6        29.99S WCI  26

$$
WYZ014>020-022>026-101>103-281500-
CENTRAL WYOMING

CITY           SKY/WX    TMP DP  RH WIND       PRES   REMARKS
BIG PINEY      CLOUDY    32  27  81 SW10      29.86S WCI  24
PINEDALE       CLOUDY    32  30  93 W10G17    29.85S WCI  24
DUBOIS         FLURRIES  27  25  93 SE13      29.89R WCI  16
LANDER         CLOUDY    33  29  85 E5        29.94R WCI  29
RIVERTON       CLOUDY    33  29  85 E9        29.96R WCI  25
CASPER         CLOUDY    31  27  85 N9        29.97R WCI  23
DOUGLAS        CLOUDY    32  28  85 N9        29.99R WCI  24

$$
WYZ021-027>030-104>119-281500-
SOUTHERN WYOMING

CITY           SKY/WX    TMP DP  RH WIND       PRES   REMARKS
EVANSTON       CLOUDY    32  25  75 E17G26    29.79R WCI  21
FORT BRIDGER   CLOUDY    32  30  93 E13       29.85R WCI  22
ROCK SPRINGS   FAIR      31  25  78 E21       29.84S WCI  18
DIXON          PTSUNNY   37  27  66 NE9       29.81S WCI  30
RAWLINS        CLOUDY    31  24  75 NE17      29.89S WCI  19
SARATOGA       CLOUDY    32  30  93 CALM      29.88R
LARAMIE        CLOUDY    28  23  81 NE7       29.91R WCI  21
CHEYENNE       CLOUDY    32  28  85 NE5       29.95R WCI  27
TORRINGTON     FAIR      36  27  69 N7        29.98S WCI  30
PINE BLUFFS    CLOUDY    34  30  86 N12       29.97R WCI  25

$$



USA.gov is the U.S. government's official web portal to all federal, state and local government web resources and services.